Theta_e
296 296 296 296 296 296 298 300 301 302 301 304 304 304 302 303 302 302 302 303 304 306 307 309 310 310 312 312 313 315 317 322 322 319 319 320 321 323 325 329 328 329 329 327
295 295 296 296 296 296 298 301 301 300 300 304 305 303 303 302 302 302 302 302 303 304 305 309 308 310 313 315 314 316 317 320 323 320 320 320 322 323 323 327 327 328 332 329
294 295 295 295 296 296 297 300 301 301 302 302 302 302 302 302 301 301 301 301 302 304 304 305 310 312 310 314 315 317 321 320 320 326 322 322 322 321 323 328 329 329 329 327
293 294 295 295 294 295 296 299 299 300 302 303 302 302 301 302 301 301 301 302 301 304 305 304 306 309 310 312 315 317 321 320 320 320 319 319 320 321 321 322 326 328 327 325
292 293 294 294 294 293 296 298 299 300 299 301 302 302 302 301 301 300 300 302 302 303 304 306 306 307 310 312 315 316 321 321 319 321 319 319 319 319 321 320 321 323 324 324
292 293 294 294 294 294 295 296 297 299 298 300 301 301 301 301 300 301 302 302 302 303 305 304 306 307 309 310 313 313 316 322 322 323 320 319 323 319 318 320 320 321 324 325
292 292 293 293 293 293 294 295 296 297 297 300 300 299 300 301 300 301 300 300 302 305 304 305 307 308 309 311 308 311 314 317 325 326 321 324 320 319 319 318 320 320 320 321
291 292 292 293 293 293 294 294 294 297 298 301 300 299 300 302 301 301 302 303 302 304 304 307 311 311 311 311 307 311 311 316 325 330 327 321 319 319 319 319 319 319 321 321
291 291 291 292 293 293 294 294 295 295 298 298 298 300 299 303 302 302 302 302 303 303 307 308 310 312 309 308 310 310 311 315 322 326 328 327 321 319 319 319 322 319 319 320
291 291 291 291 292 293 294 294 295 293 296 297 298 301 302 301 302 304 303 302 303 302 306 309 312 310 308 309 311 318 318 318 323 330 328 321 320 319 320 322 323 320 320 320
291 291 291 291 292 292 293 295 294 294 295 298 300 301 301 301 303 304 303 304 303 305 306 311 311 309 309 313 312 314 323 322 325 329 328 327 320 322 322 322 323 323 322 323
290 290 291 291 291 292 293 295 293 294 295 299 299 299 299 300 300 302 302 303 304 305 305 312 314 309 309 312 316 314 322 319 325 325 325 325 322 325 323 323 325 326 325 323
290 290 290 290 291 293 293 294 293 293 296 298 299 301 299 299 299 300 303 301 302 303 301 302 313 315 313 314 312 312 314 317 320 323 321 321 320 320 321 323 325 325 326 325
290 290 290 291 292 293 293 293 293 294 296 300 300 300 301 302 302 302 301 301 302 300 299 302 307 311 310 315 312 313 313 313 316 318 319 318 318 319 320 321 322 323 322 320
290 290 290 291 292 293 292 293 294 295 296 303 302 300 301 301 301 302 301 300 300 299 301 303 305 312 312 312 316 316 314 313 316 318 319 319 318 318 316 317 318 317 316 315
290 290 291 291 292 292 292 296 298 299 296 298 302 302 303 302 301 300 300 300 299 299 300 304 306 307 310 314 318 313 314 315 316 317 317 318 316 314 312 312 312 311 311 310
289 290 291 292 292 292 294 297 296 295 297 297 302 302 302 300 299 300 301 298 299 299 302 303 305 308 309 314 317 311 312 314 315 317 315 315 313 311 310 310 309 308 308 307
290 291 292 292 292 293 293 294 295 296 293 295 304 303 302 299 304 304 301 303 302 302 303 302 303 303 306 309 307 307 311 313 314 314 314 313 312 311 310 310 310 309 306 304
291 291 292 292 294 296 297 297 297 297 296 303 303 303 306 299 302 302 303 302 304 301 306 305 303 304 305 306 306 305 305 308 310 312 311 310 310 309 308 307 306 305 304 303
291 292 294 296 295 295 296 297 297 295 295 300 303 301 303 304 304 303 303 302 304 304 302 303 306 304 302 303 302 304 303 304 306 307 307 306 308 309 307 306 305 304 303 302
293 296 297 294 295 295 296 300 301 302 304 304 304 302 303 302 305 303 302 303 302 303 302 306 305 305 302 301 302 301 303 303 303 304 304 305 304 304 304 303 303 303 302 302
291 291 292 292 295 298 301 304 304 304 304 303 303 302 303 302 302 302 302 302 303 302 303 305 302 302 303 303 302 301 301 302 303 303 302 303 302 303 303 302 302 302 301 300
292 294 296 298 300 301 303 303 304 304 302 302 302 303 302 302 302 301 301 304 303 301 309 304 302 301 301 301 302 303 302 301 301 301 301 301 301 301 302 302 302 301 301 300
295 297 299 301 302 302 303 303 303 301 300 302 302 302 302 301 301 299 301 300 301 301 303 304 302 301 301 301 302 301 301 301 302 301 301 301 302 302 301 301 301 300 299 299
296 300 302 302 302 301 300 299 300 300 302 302 302 301 302 302 302 300 299 300 298 300 304 303 301 301 301 300 300 300 300 300 300 300 300 301 300 300 301 301 301 301 301 300
296 299 300 302 301 302 300 299 301 301 302 302 302 301 301 301 301 300 299 297 299 303 302 302 301 300 300 300 300 300 300 299 298 298 298 299 296 295 299 298 297 296 296 296
299 301 301 302 301 301 300 300 301 302 302 301 301 304 301 300 300 299 302 302 303 303 302 301 300 300 300 300 300 300 299 298 298 298 298 298 298 297 298 298 297 297 297 297
Wind_Speed
18 15 16 15 14 15 11 4 3 4 5 5 4 10 10 11 22 19 22 22 27 25 28 29 28 31 29 31 34 33 28 23 23 32 24 26 28 29 29 12 25 18 18 18
18 17 15 15 13 12 9 3 8 11 10 7 12 19 24 24 26 24 24 24 25 25 29 29 29 29 31 31 35 32 22 22 21 26 29 23 29 31 26 23 17 25 17 19
19 18 17 15 13 11 9 4 4 4 8 13 18 21 24 25 22 24 24 24 23 26 27 28 24 33 32 31 34 35 17 23 24 21 27 24 26 30 29 25 16 23 22 20
20 19 18 15 13 14 9 4 6 11 10 11 17 19 19 22 25 22 22 23 25 25 27 28 28 32 31 32 29 29 25 27 27 29 34 32 31 30 29 29 31 24 25 25
21 22 21 18 14 15 13 4 3 7 15 21 23 22 25 28 29 26 27 26 27 24 25 24 30 30 29 29 17 12 19 23 27 32 33 34 35 31 31 31 34 32 29 29
21 22 22 21 17 12 7 10 18 9 14 22 20 21 28 27 26 24 20 22 23 25 25 25 27 27 32 28 18 21 14 16 25 28 33 30 30 33 30 31 29 30 27 28
23 22 23 22 21 18 18 16 8 6 15 18 23 27 29 30 28 28 26 24 22 30 24 20 23 27 31 32 28 21 21 23 19 20 27 33 21 29 33 28 24 28 28 25
23 23 23 23 22 22 22 24 14 3 12 16 25 26 24 29 26 24 26 29 23 20 20 15 12 16 26 30 26 23 21 19 10 18 23 22 27 28 29 28 30 26 25 24
24 24 25 24 23 23 25 26 22 9 7 19 25 24 26 23 18 21 25 22 15 16 7 8 20 14 19 23 28 28 27 24 18 16 24 28 22 26 22 20 22 27 22 20
25 26 26 26 25 24 25 27 22 13 6 21 26 16 17 19 14 11 15 14 10 8 5 9 19 21 23 22 21 14 19 16 19 17 17 18 24 21 25 26 19 22 25 22
26 27 27 26 25 25 26 23 21 19 4 21 27 24 19 18 14 13 13 8 9 5 10 9 9 13 18 14 23 22 11 12 11 18 19 15 11 9 14 9 7 10 20 20
28 28 27 27 26 26 24 29 23 22 10 12 19 28 33 27 29 15 9 7 11 3 5 6 5 13 13 20 5 18 7 4 3 9 13 5 10 11 7 1 3 4 6 11
29 28 26 27 27 26 26 26 26 20 5 6 11 18 31 30 34 31 10 5 6 5 1 3 6 5 13 15 19 24 15 8 3 5 5 4 3 3 4 3 6 7 13 21
26 25 26 27 25 26 25 27 26 19 4 5 11 16 22 18 20 24 32 23 11 3 2 3 4 6 10 15 14 20 16 12 14 8 4 2 3 3 4 8 10 14 17 19
24 24 25 25 23 23 26 29 30 25 8 5 7 12 21 17 12 11 11 10 7 2 3 4 5 8 4 7 14 15 15 19 13 11 20 12 14 10 11 12 14 12 18 19
22 22 26 23 21 20 17 4 6 17 25 3 4 4 5 8 10 11 10 7 4 3 3 3 4 11 5 4 11 3 2 2 7 14 6 18 18 16 17 18 17 18 17 18
23 24 21 21 21 21 9 6 3 15 7 3 4 4 3 5 5 2 3 4 3 2 2 3 3 3 4 3 7 7 0 8 9 10 19 20 21 19 20 21 21 19 19 20
22 21 21 23 23 25 21 35 31 26 3 3 3 3 3 3 2 2 3 2 3 3 2 1 2 4 3 3 5 10 10 12 14 13 10 17 19 18 18 17 15 17 16 13
21 22 23 27 12 6 5 8 9 22 7 3 4 3 3 3 1 1 3 2 1 2 2 1 2 1 4 6 10 12 14 8 7 12 17 17 18 19 17 16 16 17 15 14
23 22 6 3 5 7 7 4 3 2 3 3 3 1 3 5 4 2 2 2 3 1 2 2 3 3 5 7 10 9 9 10 12 13 14 14 14 12 14 14 13 12 12 11
5 2 2 11 7 3 2 3 4 4 4 6 5 4 4 4 2 2 2 1 3 1 2 1 2 3 3 2 7 8 10 9 12 12 10 9 9 9 11 13 12 12 11 9
9 14 17 7 3 3 4 4 4 6 4 4 5 5 3 4 2 1 1 1 2 2 2 2 3 4 11 7 6 6 5 8 15 15 11 9 11 9 8 9 9 10 10 9
9 3 4 3 3 4 4 5 4 3 4 3 4 5 3 3 4 0 2 2 1 2 1 2 5 6 8 8 11 13 13 11 10 11 13 13 12 10 9 7 7 6 5 5
3 4 5 4 4 5 4 3 3 5 3 6 6 3 2 1 2 1 1 2 2 1 3 5 7 8 9 9 10 11 11 11 11 10 9 8 7 7 6 5 4 1 2 3
3 4 4 5 3 2 4 3 1 2 4 6 4 2 2 1 2 2 1 1 2 5 6 9 9 10 9 9 9 9 9 7 7 6 7 6 5 4 5 3 1 2 3 4
3 5 5 4 4 2 2 2 2 3 5 5 1 1 2 1 1 1 1 1 4 9 7 9 11 11 10 8 7 7 6 6 5 6 5 6 3 1 3 4 5 7 9 11
4 4 6 5 4 4 0 2 2 5 4 2 1 1 2 2 1 2 3 3 9 10 9 8 10 8 8 7 6 4 4 3 4 3 4 4 4 3 6 7 7 7 10 12
Wind_Direction
318 322 323 329 328 328 309 276 259 133 168 227 225 240 256 286 277 277 276 276 282 272 271 280 276 262 260 260 262 250 252 246 245 244 248 217 234 220 230 216 230 233 247 244
307 313 313 314 320 328 312 257 263 241 227 252 251 262 267 264 274 275 278 278 272 269 268 268 262 265 270 269 265 261 251 246 237 243 239 227 219 237 222 231 227 233 226 238
303 303 303 305 302 303 302 275 272 239 217 247 265 273 274 278 278 279 278 272 273 270 260 257 261 272 255 264 256 267 258 248 239 232 236 227 221 232 235 218 231 233 241 231
294 297 296 287 292 286 286 238 245 255 268 249 243 251 262 274 280 279 278 274 265 261 266 260 254 263 261 264 275 275 263 249 253 244 237 237 227 219 231 235 225 226 235 240
292 287 289 284 279 284 270 265 257 258 266 272 269 268 269 275 278 278 272 265 277 269 266 272 262 255 251 255 281 341 293 245 241 246 241 235 245 227 213 230 234 226 232 241
289 286 288 280 265 264 262 261 267 266 270 272 269 266 271 272 276 273 266 273 280 278 270 261 257 260 265 259 272 289 290 280 231 232 239 233 235 238 234 221 233 232 230 230
288 288 286 280 272 257 262 260 271 266 268 266 264 263 265 270 270 273 275 279 265 265 283 287 279 275 268 268 243 263 269 277 277 224 231 232 236 231 238 237 227 233 235 237
286 283 282 281 275 268 264 269 259 253 263 262 270 269 265 263 269 266 270 267 272 294 279 277 258 251 246 252 238 244 251 261 274 239 233 237 224 226 231 229 237 227 226 229
281 283 283 279 278 274 268 268 263 259 274 267 279 270 266 267 272 279 274 279 297 311 258 244 246 253 220 224 233 236 246 244 253 250 226 227 223 216 234 227 242 237 230 217
279 281 281 280 275 276 271 270 267 253 260 277 268 257 259 265 271 271 287 292 290 258 258 234 240 237 243 218 214 217 212 228 233 231 250 216 231 219 209 218 238 219 228 223
280 280 280 281 278 273 274 271 266 239 255 276 258 245 245 260 260 269 284 289 256 247 250 218 228 218 215 230 234 217 204 203 211 226 225 221 210 137 197 223 231 246 220 202
281 278 277 281 278 273 274 274 275 262 258 269 266 248 258 265 269 272 269 261 275 259 299 245 253 236 214 202 223 227 203 211 283 233 206 44 16 357 61 287 188 197 194 153
278 276 275 278 278 271 274 279 285 288 264 235 254 250 254 250 248 246 256 232 227 241 84 303 303 249 272 218 221 244 207 135 239 234 224 197 358 339 313 155 135 123 121 118
279 277 276 278 276 274 276 277 279 275 275 264 266 249 236 251 252 241 222 241 238 237 312 279 265 278 234 269 249 220 233 198 211 261 168 231 269 252 132 99 119 123 121 132
280 277 277 280 273 276 282 281 273 252 235 297 310 300 263 239 224 233 235 252 255 214 217 226 252 278 228 286 292 235 218 211 221 219 189 218 168 137 128 124 113 122 129 128
280 279 283 274 275 283 292 287 261 236 212 260 265 264 231 199 209 222 238 236 248 221 209 227 252 244 271 171 244 149 193 336 256 223 242 126 134 125 119 111 110 115 113 113
286 286 280 278 279 272 237 250 326 342 219 201 256 247 89 172 224 218 209 177 216 237 246 230 278 296 273 280 300 63 32 192 250 114 118 121 126 121 119 111 107 101 93 89
290 294 288 286 283 276 260 261 262 252 217 246 256 265 198 145 211 211 175 234 195 197 279 238 311 317 279 81 5 38 59 91 111 135 130 120 117 115 114 108 119 103 97 94
297 297 293 290 257 234 245 257 237 204 205 250 229 254 349 182 254 312 204 236 192 226 287 67 252 34 3 105 67 46 26 49 94 100 118 133 125 118 116 119 109 106 114 129
296 299 246 229 214 256 249 150 166 179 205 231 258 203 259 199 170 161 259 280 221 161 20 230 9 64 6 17 69 62 68 48 55 91 101 116 109 117 133 136 132 132 127 124
276 246 254 337 322 206 214 212 209 186 211 205 229 218 262 157 231 132 114 354 300 289 120 183 50 68 48 296 80 61 40 92 100 102 123 120 133 132 117 107 106 112 122 129
314 294 288 262 241 212 240 197 188 216 229 151 190 201 252 132 237 91 151 286 253 73 318 26 95 106 149 154 129 112 100 57 99 107 101 84 97 105 109 112 115 119 124 138
304 250 241 226 174 247 252 182 199 196 148 127 187 176 191 162 228 337 174 216 74 144 29 69 113 116 115 112 115 131 130 123 103 100 114 114 111 106 112 112 114 132 147 162
253 251 248 241 189 238 240 266 81 68 118 189 195 130 254 62 206 222 278 46 193 145 98 102 133 127 114 108 107 106 103 104 110 111 106 105 105 97 98 91 110 171 220 229
258 249 256 225 267 32 338 2 89 156 208 176 143 165 180 7 55 318 35 12 57 23 102 134 137 132 123 119 117 110 101 103 98 92 77 56 44 57 52 31 311 299 3 296
251 242 277 293 320 336 328 262 105 187 182 191 278 148 198 180 133 161 288 358 62 115 121 131 137 137 129 118 103 87 75 69 67 67 68 80 56 43 349 337 312 295 289 280
248 248 260 279 301 326 272 220 124 185 179 167 341 243 25 90 257 109 20 60 116 115 125 127 125 126 124 119 103 93 69 35 29 27 20 1 331 334 297 298 309 286 284 270